Flag for Norway Weather past 2 weeks in Kleppestø, Norway

Now
38 °F

Chilly.


Feels Like: 34 °F
Forecast: 40 / 44 °F
Wind: 5 mph from Southeast

Location: Bergen / Florida

Current Time: Feb 27, 2015 at 12:23:20 AM

Latest Report: Feb 26, 2015 at 11:00 PM


Visibility: N/A

Pressure: 29.58 "Hg

Humidity: 85%

Dew point: 33 °F

Location of KleppestøLocation

Historic Weather in Kleppestø — Graph

°F

Kleppestø temperature yesterday

Maximum temperature yesterday: 43 °F (at 8:00 AM)
Minimum temperature yesterday: 37 °F (at 8:00 PM)
Average temperature yesterday: 39 °F

Past Weeks' High & Low Weather Summary

 TemperatureHumidityPressure
High50 °F (Feb 15, 1:00 PM)90% (Feb 18, 5:00 PM)30.19 "Hg (Feb 18, 5:00 PM)
Low31 °F (Feb 15, 6:00 AM)34% (Feb 15, 3:00 PM)28.58 "Hg (Feb 23, 7:00 AM)
Average40 °F77%29.64 "Hg
* Reported Feb 11 11:00 PM — Feb 26 11:00 PM, Kleppestø, Weather by CustomWeather, © 2015

Note: Actual official high and low records may vary slightly from our data, if they occured in-between our weather recording intervals... More about our weather records

Advertising

Kleppestø weather history for previous 24 hours

 ConditionsComfort  
Time TempWeatherWind HumidityBarometerVisibility
11:00 PM
Thu, Feb 26
38 °FChilly.5 mph85%29.58 "HgN/A
10:00 PM37 °FOvercast.5 mph86%29.57 "Hg6 mi
9:00 PM38 °FChilly.6 mph86%29.55 "HgN/A
8:00 PM37 °FChilly.7 mph86%29.54 "HgN/A
7:00 PM38 °FLight rain. Overcast.10 mph84%29.53 "Hg4 mi
6:00 PM39 °FChilly.5 mph83%29.50 "HgN/A
5:00 PM39 °FChilly.8 mph82%29.47 "HgN/A
4:00 PM39 °FLight rain. Overcast.10 mph81%29.47 "Hg4 mi
3:00 PM39 °FChilly.8 mph82%29.44 "HgN/A
2:00 PM38 °FChilly.7 mph82%29.47 "HgN/A
1:00 PM38 °FRain. Overcast.9 mph80%29.50 "Hg8 mi
12:00 PM38 °FChilly.9 mph79%29.50 "HgN/A
11:00 AM39 °FChilly.9 mph75%29.55 "HgN/A
10:00 AM40 °FRain. Overcast.16 mph67%29.58 "Hg8 mi
9:00 AM42 °FQuite cool.18 mph51%29.58 "HgN/A
8:00 AM43 °FQuite cool.13 mph49%29.59 "HgN/A
1:00 AM42 °FQuite cool.7 mph72%29.81 "HgN/A
12:00 AM41 °FQuite cool.7 mph73%29.83 "HgN/A
Weather by CustomWeather, © 2015

See weather overviewHow to use our weather pages